BGA52A EPKT-EPWA

Flight info

Callsign BGA52A
Flight time N/A
Altitude 21000
Route KURON T709 KOTEK M866 LOGDA
Aircraft A3ST/H-SDFGHIRWY/LB1

Departure

Time 2026-05-05 08:50
Airport Katowice Wojciech Korfanty International Airport (EPKT)

Arrival

Time N/A
Airport Warsaw Chopin Airport (EPWA)
Time Latitude Longitude Altitude Speed Heading
2026-05-05 08:50 50.36655 19.24637 6853 ft 263 kts 252°
2026-05-05 08:50 50.35791 19.22262 6885 ft 272 kts 222°
2026-05-05 08:50 50.33985 19.20828 6877 ft 289 kts 190°
2026-05-05 08:51 50.31981 19.21112 6854 ft 309 kts 162°
2026-05-05 08:51 50.30249 19.22986 7031 ft 323 kts 131°
2026-05-05 08:51 50.29310 19.25902 7920 ft 318 kts 110°
2026-05-05 08:51 50.28892 19.29369 9086 ft 325 kts 96°
2026-05-05 08:52 50.28999 19.32755 10502 ft 319 kts 82°
2026-05-05 08:52 50.29657 19.35992 11917 ft 308 kts 65°
2026-05-05 08:52 50.30967 19.38468 13081 ft 300 kts 33°
2026-05-05 08:52 50.32786 19.39925 14117 ft 292 kts 24°
2026-05-05 08:53 50.34508 19.41473 15148 ft 286 kts 34°
2026-05-05 08:53 50.36048 19.43438 15987 ft 287 kts 43°
2026-05-05 08:53 50.37437 19.45619 16740 ft 290 kts 47°
2026-05-05 08:53 50.38781 19.47962 17519 ft 291 kts 49°
2026-05-05 08:54 50.40089 19.50361 18280 ft 293 kts 50°
2026-05-05 08:54 50.41392 19.52813 19029 ft 295 kts 50°
2026-05-05 08:54 50.42697 19.55301 19762 ft 297 kts 50°
2026-05-05 08:54 50.44003 19.57814 20476 ft 299 kts 50°
2026-05-05 08:55 50.45325 19.60372 21157 ft 303 kts 51°
2026-05-05 08:55 50.46643 19.62964 21497 ft 305 kts 54°
2026-05-05 08:55 50.47487 19.65723 21378 ft 314 kts 80°
2026-05-05 08:55 50.47568 19.69135 21459 ft 307 kts 96°
2026-05-05 08:56 50.47410 19.72468 21398 ft 303 kts 96°
2026-05-05 08:56 50.47309 19.75741 21392 ft 299 kts 94°
2026-05-05 08:56 50.47258 19.78992 21400 ft 299 kts 93°
2026-05-05 08:56 50.47225 19.82242 21402 ft 298 kts 92°
2026-05-05 08:57 50.47192 19.85528 21403 ft 298 kts 93°
2026-05-05 08:57 50.47195 19.88799 21399 ft 300 kts 84°
2026-05-05 08:57 50.47817 19.91855 21429 ft 310 kts 58°
2026-05-05 08:57 50.49268 19.94346 21512 ft 316 kts 40°
2026-05-05 08:58 50.50968 19.96555 21416 ft 311 kts 40°
2026-05-05 08:58 50.52566 19.98748 21381 ft 304 kts 42°
2026-05-05 08:58 50.54048 20.00915 21395 ft 303 kts 43°
2026-05-05 08:58 50.55558 20.03181 21405 ft 303 kts 44°
2026-05-05 08:59 50.57062 20.05459 21403 ft 302 kts 44°
2026-05-05 08:59 50.58577 20.07768 21405 ft 302 kts 44°
2026-05-05 08:59 50.60005 20.09951 21402 ft 302 kts 44°
2026-05-05 08:59 50.61489 20.12233 21406 ft 301 kts 44°
2026-05-05 09:00 50.62893 20.14600 21388 ft 304 kts 57°
2026-05-05 09:00 50.63720 20.17636 21409 ft 307 kts 79°
2026-05-05 09:00 50.63856 20.20927 21859 ft 302 kts 98°
2026-05-05 09:00 50.63428 20.23946 22949 ft 281 kts 113°
2026-05-05 09:01 50.62611 20.26559 23928 ft 265 kts 126°
2026-05-05 09:01 50.61488 20.28863 24106 ft 279 kts 135°
2026-05-05 09:01 50.60061 20.30979 23929 ft 292 kts 143°
2026-05-05 09:01 50.58416 20.32858 23807 ft 294 kts 149°
2026-05-05 09:02 50.56712 20.34536 23490 ft 304 kts 143°
2026-05-05 09:02 50.55388 20.37208 22688 ft 318 kts 111°
2026-05-05 09:02 50.55096 20.40614 22231 ft 319 kts 82°
2026-05-05 09:02 50.55844 20.43736 21739 ft 321 kts 53°
2026-05-05 09:03 50.57492 20.45958 21421 ft 311 kts 21°
2026-05-05 09:03 50.59559 20.46604 21206 ft 315 kts 353°
2026-05-05 09:03 50.61541 20.45810 21189 ft 299 kts 335°
2026-05-05 09:03 50.63464 20.44594 21344 ft 296 kts 335°
2026-05-05 09:04 50.65361 20.43399 21388 ft 294 kts 335°
2026-05-05 09:04 50.67272 20.42208 21405 ft 293 kts 335°
2026-05-05 09:04 50.69181 20.41023 21413 ft 293 kts 335°
2026-05-05 09:04 50.71024 20.39881 21416 ft 293 kts 335°
2026-05-05 09:05 50.72885 20.38727 21418 ft 293 kts 335°
2026-05-05 09:05 50.74779 20.37550 21419 ft 293 kts 335°
2026-05-05 09:05 50.76644 20.36597 21207 ft 291 kts 347°
2026-05-05 09:05 50.78615 20.36419 20891 ft 290 kts
2026-05-05 09:06 50.80582 20.36934 20942 ft 294 kts 12°
2026-05-05 09:06 50.82534 20.37827 20937 ft 297 kts 17°
2026-05-05 09:06 50.84471 20.38928 20929 ft 298 kts 19°
2026-05-05 09:06 50.86384 20.40129 20925 ft 298 kts 20°
2026-05-05 09:07 50.88295 20.41385 20921 ft 298 kts 21°
2026-05-05 09:07 50.90204 20.42674 20915 ft 298 kts 21°
2026-05-05 09:07 50.92099 20.43969 20910 ft 298 kts 22°
2026-05-05 09:07 50.93999 20.45277 20911 ft 297 kts 22°
2026-05-05 09:08 50.95898 20.46592 20911 ft 298 kts 22°
2026-05-05 09:08 50.97775 20.47894 20909 ft 298 kts 22°
2026-05-05 09:08 50.99677 20.49215 20914 ft 299 kts 22°
2026-05-05 09:08 51.01576 20.50537 20909 ft 298 kts 22°
2026-05-05 09:09 51.03469 20.51854 20912 ft 297 kts 22°
2026-05-05 09:09 51.05373 20.53181 20915 ft 298 kts 22°
2026-05-05 09:09 51.07245 20.54486 20912 ft 297 kts 22°
2026-05-05 09:09 51.09087 20.55772 20914 ft 297 kts 22°
2026-05-05 09:10 51.10862 20.57011 20911 ft 298 kts 22°
2026-05-05 09:10 51.12778 20.58350 20910 ft 297 kts 22°
2026-05-05 09:10 51.14674 20.59675 20908 ft 298 kts 22°
2026-05-05 09:10 51.16488 20.60945 20904 ft 298 kts 22°
2026-05-05 09:11 51.18395 20.62282 20900 ft 298 kts 22°
2026-05-05 09:11 51.20303 20.63620 20902 ft 298 kts 22°
2026-05-05 09:11 51.22161 20.64925 20907 ft 298 kts 22°
2026-05-05 09:11 51.23832 20.66100 20903 ft 299 kts 22°
2026-05-05 09:12 51.25861 20.67530 20890 ft 299 kts 22°
2026-05-05 09:12 51.27756 20.68842 20891 ft 299 kts 20°
2026-05-05 09:12 51.29688 20.69994 20895 ft 299 kts 18°
2026-05-05 09:12 51.31436 20.70959 20894 ft 298 kts 17°
2026-05-05 09:13 51.33462 20.72058 20892 ft 298 kts 17°
2026-05-05 09:13 51.35384 20.73094 20721 ft 293 kts 17°
2026-05-05 09:13 51.37292 20.74120 20257 ft 295 kts 17°
2026-05-05 09:13 51.38601 20.74821 20012 ft 294 kts 16°
2026-05-05 09:14 51.40636 20.75909 19660 ft 291 kts 17°
2026-05-05 09:14 51.42556 20.76936 19283 ft 290 kts 16°
2026-05-05 09:14 51.44465 20.77959 18890 ft 290 kts 16°
2026-05-05 09:14 51.46308 20.78946 18542 ft 288 kts 17°
2026-05-05 09:15 51.48157 20.79941 18182 ft 287 kts 17°
2026-05-05 09:15 51.50045 20.80961 17823 ft 286 kts 16°
2026-05-05 09:15 51.51959 20.81995 17461 ft 285 kts 16°
2026-05-05 09:15 51.53814 20.82996 17103 ft 283 kts 16°
2026-05-05 09:16 51.55691 20.84011 16759 ft 282 kts 16°
2026-05-05 09:16 51.57560 20.85021 16405 ft 281 kts 16°
2026-05-05 09:16 51.59390 20.86011 16041 ft 280 kts 16°
2026-05-05 09:16 51.61216 20.86999 15707 ft 279 kts 15°
2026-05-05 09:17 51.63050 20.87989 15374 ft 277 kts 15°
2026-05-05 09:17 51.64899 20.88990 15020 ft 276 kts 15°
2026-05-05 09:17 51.66707 20.89970 14678 ft 275 kts 15°
2026-05-05 09:17 51.68505 20.90937 14348 ft 273 kts 15°
2026-05-05 09:18 51.70315 20.91892 14015 ft 272 kts 14°
2026-05-05 09:18 51.72111 20.92834 13672 ft 270 kts 14°
2026-05-05 09:18 51.73925 20.93782 13332 ft 269 kts 14°
2026-05-05 09:18 51.75703 20.94709 13004 ft 267 kts 15°
2026-05-05 09:19 51.77498 20.95412 12608 ft 264 kts 358°
2026-05-05 09:19 51.79287 20.94785 11982 ft 262 kts 328°
2026-05-05 09:19 51.80850 20.93375 11760 ft 254 kts 326°
2026-05-05 09:19 51.82381 20.91996 11504 ft 250 kts 327°
2026-05-05 09:20 51.83894 20.90693 11175 ft 249 kts 328°
2026-05-05 09:20 51.85455 20.89379 10827 ft 248 kts 328°
2026-05-05 09:20 51.86985 20.88098 10484 ft 248 kts 328°
2026-05-05 09:20 51.88506 20.86826 10155 ft 247 kts 328°
2026-05-05 09:21 51.90055 20.85531 9822 ft 246 kts 328°
2026-05-05 09:21 51.91580 20.84260 9489 ft 246 kts 329°
2026-05-05 09:21 51.93086 20.83003 9224 ft 242 kts 329°
2026-05-05 09:21 51.94416 20.81899 9097 ft 233 kts 329°
2026-05-05 09:22 51.95889 20.80671 8940 ft 223 kts 329°
2026-05-05 09:22 51.97292 20.79866 8771 ft 219 kts
2026-05-05 09:22 51.98699 20.80691 8483 ft 216 kts 46°
2026-05-05 09:22 51.99591 20.82577 8241 ft 209 kts 60°
2026-05-05 09:23 52.00328 20.84583 7975 ft 206 kts 61°
2026-05-05 09:23 52.01054 20.86586 7670 ft 205 kts 61°
2026-05-05 09:23 52.01772 20.88612 7352 ft 205 kts 62°
2026-05-05 09:23 52.02421 20.90619 7038 ft 202 kts 78°
2026-05-05 09:24 52.02455 20.92897 6522 ft 205 kts 111°
2026-05-05 09:24 52.01708 20.94579 6473 ft 166 kts 158°
2026-05-05 09:24 52.00684 20.95276 6370 ft 162 kts 159°
2026-05-05 09:24 51.99587 20.96171 6355 ft 196 kts 156°
2026-05-05 09:25 51.98239 20.97322 6344 ft 238 kts 155°
2026-05-05 09:25 51.96681 20.98666 6265 ft 198 kts 155°
2026-05-05 09:25 51.95348 20.99763 5890 ft 236 kts 154°
2026-05-05 09:25 51.93809 21.01131 5778 ft 275 kts 154°
2026-05-05 09:26 51.91964 21.02755 5443 ft 324 kts 153°
2026-05-05 09:26 51.90155 21.05360 5125 ft 366 kts 121°
2026-05-05 09:26 51.89471 21.09125 6542 ft 352 kts 95°
2026-05-05 09:26 51.89618 21.12339 7399 ft 252 kts 72°
2026-05-05 09:27 51.90543 21.14708 8142 ft 259 kts 38°
2026-05-05 09:27 51.92139 21.16002 9018 ft 253 kts
2026-05-05 09:27 51.93783 21.15749 10023 ft 235 kts 334°
2026-05-05 09:27 51.95134 21.14520 10965 ft 218 kts 316°
2026-05-05 09:28 51.96235 21.12919 11599 ft 217 kts 309°
2026-05-05 09:28 51.97297 21.11106 12009 ft 227 kts 307°
2026-05-05 09:28 51.98345 21.09142 12590 ft 229 kts 305°